| time (UTC) | temp C | wind direction | speed KPH | gust KPH | rain 1hr cm | rain 24hr cm | rain mn cm | humidity % | barometer mb |
| 20260507191555 | 17 | 163 | 0.0 | 11.3 | 0.00 | 0.00 | 0.00 | 49 | 1011.9 |
| 20260507183008 | 16 | 171 | 0.0 | 1.6 | 0.00 | 0.00 | 0.00 | 52 | 1012.7 |
| 20260507181507 | 16 | 184 | 0.0 | 1.6 | 0.00 | 0.00 | 0.00 | 52 | 1013.1 |
| 20260507180005 | 16 | 182 | 0.0 | 1.6 | 0.00 | 0.00 | 0.00 | 53 | 1013.3 |
| 20260507174506 | 15 | 183 | 0.0 | 1.6 | 0.00 | 0.00 | 0.00 | 56 | 1013.7 |
| 20260507173123 | 15 | 161 | 0.0 | 4.8 | 0.00 | 0.00 | 0.00 | 56 | 1014.0 |
| 20260507171601 | 14 | 184 | 0.0 | 4.8 | 0.00 | 0.00 | 0.00 | 58 | 1014.2 |
| 20260507170058 | 14 | 184 | 0.0 | 1.6 | 0.00 | 0.00 | 0.00 | 58 | 1014.5 |
| 20260507164630 | 14 | 192 | 0.0 | 16.1 | 0.00 | 0.00 | 0.00 | 58 | 1014.6 |
| 20260507164521 | 14 | 192 | 0.0 | 16.1 | 0.00 | 0.00 | 0.00 | 58 | 1014.6 |
| 20260507163056 | 13 | 155 | 0.0 | 3.2 | 0.00 | 0.00 | 0.00 | 58 | 1014.9 |
| 20260507161555 | 13 | 93 | 0.0 | 0.0 | 0.00 | 0.00 | 0.00 | 60 | 1015.0 |
| 20260507160045 | 12 | 93 | 0.0 | 1.6 | 0.00 | 0.00 | 0.00 | 61 | 1015.3 |
| 20260507154540 | 12 | 90 | 0.0 | 1.6 | 0.00 | 0.00 | 0.00 | 62 | 1015.5 |
| 20260507153041 | 12 | 88 | 0.0 | 1.6 | 0.00 | 0.00 | 0.00 | 61 | 1015.6 |
| 20260507151533 | 12 | 88 | 0.0 | 0.0 | 0.00 | 0.00 | 0.00 | 61 | 1015.8 |
| 20260507150034 | 12 | 88 | 0.0 | 1.6 | 0.00 | 0.00 | 0.00 | 62 | 1016.1 |
| 20260507144534 | 11 | 88 | 1.6 | 19.3 | 0.00 | 0.00 | 0.00 | 63 | 1016.3 |
| 20260507143028 | 11 | 13 | 0.0 | 1.6 | 0.00 | 0.00 | 0.00 | 62 | 1016.5 |
| 20260507141524 | 10 | 9 | 0.0 | 12.9 | 0.00 | 0.00 | 0.00 | 62 | 1016.4 |
| 20260507140024 | 10 | 5 | 6.4 | 14.5 | 0.00 | 0.00 | 0.00 | 63 | 1016.5 |
| 20260507134524 | 10 | 10 | 1.6 | 14.5 | 0.00 | 0.00 | 0.00 | 63 | 1016.4 |
| 20260507133025 | 10 | 5 | 4.8 | 17.7 | 0.00 | 0.00 | 0.00 | 64 | 1016.2 |
| 20260507131521 | 9 | 360 | 11.3 | 17.7 | 0.00 | 0.00 | 0.00 | 64 | 1016.2 |
| 20260507130018 | 9 | 5 | 12.9 | 19.3 | 0.00 | 0.00 | 0.00 | 65 | 1015.9 |
| 20260507124520 | 9 | 5 | 9.7 | 20.9 | 0.00 | 0.00 | 0.00 | 66 | 1015.7 |
| 20260507123014 | 8 | 360 | 12.9 | 20.9 | 0.00 | 0.00 | 0.00 | 67 | 1015.6 |
| 20260507121513 | 8 | 351 | 12.9 | 19.3 | 0.00 | 0.00 | 0.00 | 68 | 1015.4 |
| 20260507120009 | 8 | 345 | 14.5 | 19.3 | 0.00 | 0.00 | 0.00 | 68 | 1015.3 |
| 20260507114509 | 8 | 343 | 9.7 | 16.1 | 0.00 | 0.00 | 0.00 | 68 | 1015.2 |
| 20260507113023 | 9 | 355 | 1.6 | 8.0 | 0.00 | 0.00 | 0.00 | 65 | 1015.0 |
| 20260507111503 | 10 | 27 | 1.6 | 4.8 | 0.00 | 0.00 | 0.00 | 63 | 1014.9 |
| 20260507110059 | 10 | 34 | 0.0 | 3.2 | 0.00 | 0.00 | 0.00 | 63 | 1014.8 |
| 20260507104556 | 11 | 37 | 0.0 | 9.7 | 0.00 | 0.00 | 0.00 | 62 | 1014.6 |
| 20260507103055 | 11 | 44 | 0.0 | 1.6 | 0.00 | 0.00 | 0.00 | 61 | 1014.3 |
| 20260507101549 | 11 | 44 | 0.0 | 9.7 | 0.00 | 0.00 | 0.00 | 61 | 1014.2 |
| 20260507100046 | 12 | 69 | 9.7 | 22.5 | 0.00 | 0.00 | 0.00 | 61 | 1013.8 |
| 20260507094544 | 12 | 79 | 20.9 | 35.4 | 0.00 | 0.00 | 0.00 | 59 | 1013.4 |
| 20260507093045 | 12 | 76 | 24.1 | 37.0 | 0.00 | 0.00 | 0.00 | 59 | 1013.1 |
| 20260507091542 | 12 | 88 | 29.0 | 43.5 | 0.00 | 0.00 | 0.00 | 58 | 1012.7 |
| 20260507090038 | 12 | 82 | 27.4 | 37.0 | 0.00 | 0.00 | 0.00 | 57 | 1012.6 |
| 20260507084543 | 12 | 79 | 25.7 | 41.8 | 0.00 | 0.00 | 0.00 | 57 | 1012.4 |
| 20260507083034 | 13 | 84 | 27.4 | 41.8 | 0.00 | 0.00 | 0.00 | 56 | 1012.2 |
| 20260507081539 | 13 | 81 | 29.0 | 40.2 | 0.00 | 0.00 | 0.00 | 56 | 1012.2 |
| 20260507080033 | 14 | 90 | 27.4 | 41.8 | 0.00 | 0.00 | 0.00 | 56 | 1011.6 |
| 20260507074532 | 13 | 59 | 30.6 | 45.1 | 0.00 | 0.00 | 0.00 | 58 | 1011.6 |
| 20260507073027 | 11 | 360 | 16.1 | 25.7 | 0.00 | 0.00 | 0.00 | 60 | 1011.4 |
| 20260507071523 | 11 | 347 | 20.9 | 35.4 | 0.00 | 0.00 | 0.00 | 60 | 1011.2 |
| 20260507070018 | 11 | 355 | 30.6 | 40.2 | 0.00 | 0.00 | 0.00 | 59 | 1010.8 |
| 20260507064515 | 12 | 343 | 27.4 | 40.2 | 0.00 | 0.00 | 0.00 | 55 | 1010.6 |
| 20260507063011 | 14 | 355 | 30.6 | 45.1 | 0.00 | 0.00 | 0.00 | 47 | 1010.4 |
| 20260507061507 | 15 | 343 | 29.0 | 43.5 | 0.00 | 0.00 | 0.00 | 46 | 1010.4 |
| 20260507060003 | 15 | 336 | 27.4 | 37.0 | 0.00 | 0.00 | 0.00 | 44 | 1010.1 |
| 20260507054600 | 15 | 328 | 25.7 | 35.4 | 0.00 | 0.00 | 0.00 | 41 | 1009.9 |
| 20260507053056 | 16 | 330 | 19.3 | 30.6 | 0.00 | 0.00 | 0.00 | 41 | 1009.6 |
| 20260507051552 | 16 | 343 | 20.9 | 30.6 | 0.00 | 0.00 | 0.00 | 38 | 1009.4 |
| 20260507050047 | 18 | 327 | 19.3 | 27.4 | 0.00 | 0.00 | 0.00 | 27 | 1009.2 |
| 20260507044555 | 18 | 285 | 11.3 | 16.1 | 0.00 | 0.00 | 0.00 | 25 | 1008.5 |
| 20260507043059 | 18 | 285 | 11.3 | 16.1 | 0.00 | 0.00 | 0.00 | 26 | 1008.4 |
| 20260507041542 | 17 | 246 | 3.2 | 8.0 | 0.00 | 0.00 | 0.00 | 28 | 1008.5 |
| 20260507040039 | 17 | 246 | 0.0 | 0.0 | 0.00 | 0.00 | 0.00 | 30 | 1008.4 |
| 20260507034536 | 17 | 246 | 0.0 | 0.0 | 0.00 | 0.00 | 0.00 | 29 | 1008.0 |
| 20260507033029 | 17 | 246 | 0.0 | 4.8 | 0.00 | 0.00 | 0.00 | 28 | 1007.6 |
| 20260507031525 | 18 | 246 | 3.2 | 6.4 | 0.00 | 0.00 | 0.00 | 27 | 1007.4 |
| 20260507030021 | 18 | 246 | 4.8 | 8.0 | 0.00 | 0.00 | 0.00 | 25 | 1007.1 |
| 20260507024519 | 20 | 246 | 8.0 | 12.9 | 0.00 | 0.00 | 0.00 | 22 | 1006.8 |
| 20260507023011 | 21 | 246 | 8.0 | 11.3 | 0.00 | 0.00 | 0.00 | 20 | 1006.5 |
| 20260507021510 | 22 | 247 | 6.4 | 12.9 | 0.00 | 0.00 | 0.00 | 19 | 1006.2 |
| 20260507020105 | 22 | 250 | 6.4 | 16.1 | 0.00 | 0.00 | 0.00 | 17 | 1006.0 |
| 20260507014559 | 23 | 251 | 14.5 | 20.9 | 0.00 | 0.00 | 0.00 | 16 | 1005.8 |
| 20260507013056 | 23 | 249 | 16.1 | 24.1 | 0.00 | 0.00 | 0.00 | 15 | 1005.4 |
| 20260507011550 | 24 | 270 | 24.1 | 32.2 | 0.00 | 0.00 | 0.00 | 14 | 1005.1 |
| 20260507010046 | 25 | 261 | 24.1 | 35.4 | 0.00 | 0.00 | 0.00 | 14 | 1004.9 |
| 20260507004544 | 25 | 256 | 27.4 | 41.8 | 0.00 | 0.00 | 0.00 | 13 | 1004.8 |
| 20260507003040 | 25 | 260 | 33.8 | 45.1 | 0.00 | 0.00 | 0.00 | 13 | 1004.6 |
| 20260507001605 | 25 | 263 | 25.7 | 46.7 | 0.00 | 0.00 | 0.00 | 13 | 1004.5 |
| 20260507000042 | 25 | 250 | 30.6 | 45.1 | 0.00 | 0.00 | 0.00 | 13 | 1004.4 |
| 20260506234534 | 25 | 268 | 32.2 | 48.3 | 0.00 | 0.00 | 0.00 | 12 | 1004.3 |
| 20260506233033 | 25 | 229 | 33.8 | 43.5 | 0.00 | 0.00 | 0.00 | 13 | 1004.2 |
| 20260506231532 | 25 | 257 | 33.8 | 45.1 | 0.00 | 0.00 | 0.00 | 13 | 1004.2 |
| 20260506230131 | 25 | 233 | 32.2 | 45.1 | 0.00 | 0.00 | 0.00 | 13 | 1004.0 |
| 20260506224530 | 25 | 227 | 29.0 | 51.5 | 0.00 | 0.00 | 0.00 | 13 | 1003.9 |
| 20260506223033 | 25 | 264 | 32.2 | 46.7 | 0.00 | 0.00 | 0.00 | 14 | 1004.0 |
| 20260506221528 | 25 | 238 | 33.8 | 46.7 | 0.00 | 0.00 | 0.00 | 14 | 1004.0 |
| 20260506220033 | 25 | 273 | 20.9 | 41.8 | 0.00 | 0.00 | 0.00 | 14 | 1004.0 |
| 20260506214526 | 25 | 230 | 32.2 | 41.8 | 0.00 | 0.00 | 0.00 | 14 | 1004.0 |
| 20260506204553 | 25 | 252 | 33.8 | 46.7 | 0.00 | 0.00 | 0.00 | 16 | 1004.9 |
| 20260506203049 | 25 | 270 | 29.0 | 45.1 | 0.00 | 0.00 | 0.00 | 16 | 1005.1 |
| 20260506201547 | 24 | 226 | 30.6 | 53.1 | 0.00 | 0.00 | 0.00 | 16 | 1005.0 |
| 20260506200044 | 24 | 264 | 35.4 | 48.3 | 0.00 | 0.00 | 0.00 | 14 | 1005.3 |
| 20260506194545 | 24 | 248 | 25.7 | 53.1 | 0.00 | 0.00 | 0.00 | 16 | 1005.1 |
| 20260506193046 | 23 | 243 | 30.6 | 62.8 | 0.00 | 0.00 | 0.00 | 16 | 1005.5 |